Regional Weather Roundup
Issued by NWS

Home | Current Version | Previous Version | Text Only | Print | Product List | Glossary On
Versions: 1 2 3 4 5 6 7 8 9 10 11 12 13 14 15 16 17 18 19 20 21 22 23 24 25 26 27 28 29 30 31 32 33 34 35 36 37 38 39 40 41 42 43 44 45 46 47 48 49 50
000
ASUS42 KFFC 261010
RWRGA
WEATHER ROUNDUP FOR GEORGIA
NATIONAL WEATHER SERVICE PEACHTREE CITY GA
600 AM EDT THU APR 26 2018

NOTE: "FAIR" INDICATES FEW OR NO CLOUDS BELOW 12,000 FEET WITH NO
SIGNIFICANT WEATHER AND/OR OBSTRUCTIONS TO VISIBILITY.

* = USE WITH CAUTION. THE STATIONS MARKED WITH AN ASTERISK MAY NOT
REPORT WEATHER SUCH AS PRECIPITATION, FOG, OR THUNDER AND ARE NOT
QUALITY CONTROLLED BY NWS.

THE REMARK "TC" DENOTES TEMPERATURE READING IN DEGREES CELSIUS.

GAZ001>058-261100-
NORTH GEORGIA

CITY           SKY/WX    TMP DP  RH WIND       PRES   REMARKS
ATLANTA        MOCLDY    51  49  92 CALM      29.85F
ATHENS         FAIR      50  50 100 CALM      29.85S
CHAMBLEE       FAIR      48  46  93 CALM      29.85F
PEACHTREE CITY FAIR      48  47  96 CALM      29.86F
ROME           MOCLDY    49  49 100 CALM      29.85F
WEST ATLANTA   FAIR      48  48 100 CALM      29.85F
GAINESVILLE    FAIR      51  48  89 CALM      29.86F
CARTERSVILLE   MOCLDY    47  47 100 CALM      29.86S


CITY           SKY/WX    TMP DP  RH WIND       PRES   REMARKS
DALTON*        FAIR      46  46 100 CALM      29.87F
LAWRENCEVILLE* FAIR     N/A N/A N/A CALM        N/A
MARIETTA       FAIR      49  47  94 CALM      29.84F
KENNESAW*      FAIR      48  47  96 CALM      29.85F
CANTON*        FAIR      50  46  87 CALM      29.86S
BLAIRSVILLE*   FOG       43  43  99 CALM      29.88F VSB 1/2
$$

GAZ059>098-102>109-261100-
CENTRAL GEORGIA

CITY           SKY/WX    TMP DP  RH WIND       PRES   REMARKS
AUGUSTA-BUSH   FAIR      50  50 100 CALM      29.83F
AUGUSTA-DANIEL FAIR      56  53  90 N5        29.84S
COLUMBUS       FAIR      53  50  89 CALM      29.87S
MACON          FAIR      50  50 100 CALM      29.86S
ROBINS AFB     CLEAR     52  51  94 CALM      29.86R


CITY           SKY/WX    TMP DP  RH WIND       PRES   REMARKS
LAGRANGE*      FAIR      47  47  97 CALM      29.87S FOG
SYLVANIA*      FAIR      53  53 100 CALM      29.85S
MILLEDGEVILLE* FAIR      50  50 100 CALM      29.86R
$$

GAZ099>101-110>166-261100-
SOUTH GEORGIA

CITY           SKY/WX    TMP DP  RH WIND       PRES   REMARKS
SAVANNAH       FAIR      57  53  86 CALM      29.87R
VALDOSTA       FAIR      51  50  96 CALM      29.88S FOG
ALMA           FAIR      53  51  93 CALM      29.87S
ST SIMONS      FAIR      61  56  83 W3        29.87S
FT STEWART     FAIR      54  52  93 CALM      29.85S
ALBANY         FAIR      54  52  93 CALM      29.90S
HUNTER AFB     FAIR      56  53  88 CALM      29.84S
MOODY AFB      FAIR      55  54  96 CALM      29.87S
BRUNSWICK      FAIR      55  52  88 W3        29.89S


CITY           SKY/WX    TMP DP  RH WIND       PRES   REMARKS
BAINBRIDGE*      N/A     55  55 100 CALM      29.88F
MOULTRIE*      FAIR      55  54  94 CALM      29.89F
VIDALIA*       FAIR      54  52  94 CALM      29.87S
WAYCROSS*      FAIR      55  52  90 CALM      29.89R
DOUGLAS*       FAIR      52  52 100 CALM      29.90R
$$



USA.gov is the U.S. government's official web portal to all federal, state and local government web resources and services.